Wildwood, NJ

8:39 AM EDT on September 25, 2017 (GMT -0400)
Cape May County

Weather History for KWWD - November, 2012

Change the Weather History Date:

Wednesday, November 14, 2012

  Actual Average Record
Temperature  
Mean Temperature 40 °F -  
Max Temperature 48 °F 52 °F 71 °F (2011)
Min Temperature 33 °F 38 °F 30 °F (1996)
Degree Days  
Heating Degree Days 24    
Moisture  
Dew Point 29 °F    
Average Humidity 60    
Maximum Humidity 75    
Minimum Humidity 46    
Precipitation  
Precipitation 0.00 in - - ()
Sea Level Pressure  
Sea Level Pressure 30.44 in    
Wind  
Wind Speed 10 mph (North)    
Max Wind Speed 15 mph    
Max Gust Speed 21 mph    
Visibility 10 miles    
Events      
Averages and records for this station are not official NWS values.
T = Trace of Precipitation, MM = Missing Value Source: NWS Daily Summary

Daily Weather History Graph

Daily Weather History Graph

Search for Another Location

Airport or City:

Trip Planner

Search our weather history database for the weather conditions in past years. The results will help you decide how hot, cold, wet, or windy it might be!

Date:

Astronomy

Nov. 14, 2012 Rise Set
Actual Time 6:41 AM EST 4:45 PM EST
Civil Twilight 6:13 AM EST 5:14 PM EST
Nautical Twilight 5:41 AM EST 5:46 PM EST
Astronomical Twilight 5:09 AM EST 6:18 PM EST
Moon 7:27 AM EST (11/14) 5:32 PM EST (11/14)
Length of Visible Light 11h 01m
Length of Day
10h 04m
New Moon, 1% of the Moon is Illuminated
Nov 14
New Moon
Nov 20
First Quarter
Nov 28
Full
Dec 6
Last Quarter
Dec 13
New

Hourly Weather History & Observations

Time (EST) Temp. Windchill Dew Point Humidity Pressure Visibility Wind Dir Wind Speed Gust Speed Precip Events Conditions
12:15 AM 39.2 °F 33.6 °F 28.4 °F 65% 30.42 in 10.0 mi North 8.1 mph - N/A   Partly Cloudy
12:35 AM 39.2 °F 32.5 °F 28.4 °F 65% 30.43 in 10.0 mi North 10.4 mph - N/A   Clear
12:55 AM 39.2 °F 34.2 °F 28.4 °F 65% 30.43 in 10.0 mi North 6.9 mph - N/A   Clear
1:15 AM 37.4 °F 30.3 °F 28.4 °F 70% 30.43 in 10.0 mi North 10.4 mph - N/A   Clear
1:35 AM 37.4 °F 29.8 °F 28.4 °F 70% 30.43 in 10.0 mi North 11.5 mph 16.1 mph N/A   Clear
1:55 AM 37.4 °F 29.3 °F 26.6 °F 65% 30.43 in 10.0 mi North 12.7 mph - N/A   Clear
2:15 AM 37.4 °F 29.8 °F 26.6 °F 65% 30.44 in 10.0 mi North 11.5 mph - N/A   Clear
2:35 AM 37.4 °F 30.3 °F 26.6 °F 65% 30.43 in 10.0 mi North 10.4 mph - N/A   Clear
2:55 AM 37.4 °F 29.8 °F 26.6 °F 65% 30.43 in 10.0 mi North 11.5 mph 17.3 mph N/A   Clear
3:15 AM 37.4 °F 29.8 °F 26.6 °F 65% 30.43 in 10.0 mi North 11.5 mph 17.3 mph N/A   Clear
3:35 AM 37.4 °F 30.3 °F 26.6 °F 65% 30.43 in 10.0 mi North 10.4 mph 17.3 mph N/A   Mostly Cloudy
3:55 AM 37.4 °F 29.8 °F 26.6 °F 65% 30.43 in 10.0 mi North 11.5 mph - N/A   Overcast
4:15 AM 37.4 °F 30.3 °F 26.6 °F 65% 30.44 in 10.0 mi North 10.4 mph 17.3 mph N/A   Overcast
4:35 AM 37.4 °F 28.9 °F 26.6 °F 65% 30.45 in 10.0 mi North 13.8 mph 19.6 mph N/A   Overcast
4:55 AM 37.4 °F 28.9 °F 26.6 °F 65% 30.45 in 10.0 mi North 13.8 mph 20.7 mph N/A   Overcast
5:15 AM 35.6 °F 27.1 °F 26.6 °F 70% 30.46 in 10.0 mi North 12.7 mph 18.4 mph N/A   Mostly Cloudy
5:35 AM 35.6 °F 27.5 °F 26.6 °F 70% 30.46 in 10.0 mi North 11.5 mph - N/A   Clear
5:55 AM 35.6 °F 28.6 °F 26.6 °F 70% 30.46 in 10.0 mi North 9.2 mph - N/A   Clear
6:15 AM 35.6 °F 28.0 °F 24.8 °F 65% 30.47 in 10.0 mi North 10.4 mph - N/A   Clear
6:35 AM 33.8 °F 26.4 °F 26.6 °F 75% 30.48 in 10.0 mi North 9.2 mph - N/A   Clear
6:55 AM 33.8 °F 26.4 °F 26.6 °F 75% 30.48 in 10.0 mi North 9.2 mph - N/A   Clear
7:15 AM 33.8 °F 25.8 °F 26.6 °F 75% 30.48 in 10.0 mi North 10.4 mph - N/A   Clear
7:35 AM 35.6 °F 27.5 °F 26.6 °F 70% 30.48 in 10.0 mi North 11.5 mph - N/A   Clear
7:55 AM 35.6 °F 28.0 °F 26.6 °F 70% 30.49 in 10.0 mi North 10.4 mph - N/A   Clear
8:15 AM 37.4 °F 29.8 °F 26.6 °F 65% 30.49 in 10.0 mi North 11.5 mph - N/A   Clear
8:35 AM 39.2 °F 31.2 °F 26.6 °F 61% 30.49 in 10.0 mi North 13.8 mph - N/A   Clear
8:55 AM 39.2 °F 30.8 °F 26.6 °F 61% 30.48 in 10.0 mi North 15.0 mph - N/A   Clear
9:15 AM 41.0 °F 33.5 °F 26.6 °F 57% 30.48 in 10.0 mi NNE 13.8 mph - N/A   Clear
9:35 AM 42.8 °F 37.0 °F 26.6 °F 53% 30.48 in 10.0 mi North 10.4 mph - N/A   Clear
9:55 AM 42.8 °F 36.6 °F 26.6 °F 53% 30.48 in 10.0 mi North 11.5 mph - N/A   Clear
10:15 AM 44.6 °F 38.8 °F 26.6 °F 49% 30.48 in 10.0 mi NNE 11.5 mph 16.1 mph N/A   Clear
10:35 AM 44.6 °F 38.8 °F 28.4 °F 53% 30.46 in 10.0 mi North 11.5 mph - N/A   Clear
10:55 AM 44.6 °F 39.2 °F 28.4 °F 53% 30.46 in 10.0 mi NNE 10.4 mph 17.3 mph N/A   Clear
11:15 AM 44.6 °F 38.8 °F 28.4 °F 53% 30.44 in 10.0 mi North 11.5 mph - N/A   Clear
11:35 AM 46.4 °F 41.5 °F 26.6 °F 46% 30.44 in 10.0 mi NNE 10.4 mph - N/A   Clear
11:55 AM 46.4 °F 41.9 °F 28.4 °F 50% 30.44 in 10.0 mi North 9.2 mph 17.3 mph N/A   Clear
12:15 PM 46.4 °F 41.5 °F 28.4 °F 50% 30.43 in 10.0 mi NNW 10.4 mph 16.1 mph N/A   Clear
12:35 PM 46.4 °F 41.9 °F 28.4 °F 50% - 10.0 mi NW 9.2 mph 17.3 mph N/A   Clear
12:55 PM 46.4 °F 41.9 °F 28.4 °F 50% 30.43 in 10.0 mi NW 9.2 mph - N/A   Clear
1:15 PM 46.4 °F 43.5 °F 28.4 °F 50% - 10.0 mi NNW 5.8 mph - N/A   Clear
1:35 PM 46.4 °F 42.4 °F 26.6 °F 46% 30.42 in 10.0 mi NW 8.1 mph - N/A   Clear
1:55 PM 46.4 °F 42.4 °F 26.6 °F 46% 30.42 in 10.0 mi NNW 8.1 mph - N/A   Clear
2:15 PM 46.4 °F 41.9 °F 28.4 °F 50% 30.42 in 10.0 mi NW 9.2 mph - N/A   Clear
2:35 PM 48.2 °F - 28.4 °F 46% 30.41 in 10.0 mi NNW 6.9 mph - N/A   Clear
2:55 PM 48.2 °F - 28.4 °F 46% - 10.0 mi NE 10.4 mph - N/A   Clear
3:15 PM 48.2 °F - 28.4 °F 46% 30.41 in 10.0 mi NE 9.2 mph - N/A   Clear
3:35 PM 46.4 °F 41.1 °F 30.2 °F 53% 30.41 in 10.0 mi ENE 11.5 mph - N/A   Clear
3:55 PM 46.4 °F 41.5 °F 32.0 °F 57% 30.40 in 10.0 mi ENE 10.4 mph - N/A   Clear
4:15 PM 46.4 °F 41.1 °F 30.2 °F 53% 30.40 in 10.0 mi NE 11.5 mph - N/A   Clear
4:35 PM 44.6 °F 40.2 °F 32.0 °F 61% 30.41 in 10.0 mi NE 8.1 mph - N/A   Clear
4:55 PM 44.6 °F 41.4 °F 30.2 °F 57% 30.42 in 10.0 mi NNE 5.8 mph - N/A   Clear
5:15 PM 42.8 °F 38.6 °F 30.2 °F 61% 30.42 in 10.0 mi North 6.9 mph - N/A   Scattered Clouds
5:35 PM 42.8 °F 41.1 °F 32.0 °F 66% 30.43 in 10.0 mi North 3.5 mph - N/A   Overcast
5:55 PM 42.8 °F 41.1 °F 32.0 °F 66% 30.43 in 10.0 mi North 3.5 mph - N/A   Overcast
6:15 PM 44.6 °F 40.7 °F 32.0 °F 61% 30.44 in 10.0 mi NNE 6.9 mph - N/A   Overcast
6:35 PM 44.6 °F 41.4 °F 32.0 °F 61% 30.44 in 10.0 mi NNE 5.8 mph - N/A   Overcast
6:55 PM 44.6 °F 40.2 °F 32.0 °F 61% 30.42 in 10.0 mi NNE 8.1 mph - N/A   Overcast
7:15 PM 44.6 °F 39.2 °F 30.2 °F 57% 30.42 in 10.0 mi NNE 10.4 mph - N/A   Overcast
7:35 PM 44.6 °F 38.8 °F 30.2 °F 57% 30.41 in 10.0 mi NNE 11.5 mph - N/A   Overcast
7:55 PM 44.6 °F 39.2 °F 30.2 °F 57% 30.41 in 10.0 mi NNE 10.4 mph - N/A   Overcast
8:15 PM 44.6 °F 39.7 °F 30.2 °F 57% 30.41 in 10.0 mi NNE 9.2 mph - N/A   Overcast
8:35 PM 42.8 °F 36.6 °F 30.2 °F 61% 30.40 in 10.0 mi NNE 11.5 mph - N/A   Overcast
8:55 PM 44.6 °F 39.7 °F 30.2 °F 57% 30.41 in 10.0 mi North 9.2 mph - N/A   Overcast
9:15 PM 44.6 °F 41.4 °F 32.0 °F 61% 30.42 in 10.0 mi North 5.8 mph - N/A   Overcast
9:35 PM 44.6 °F 40.7 °F 30.2 °F 57% 30.43 in 10.0 mi North 6.9 mph - N/A   Overcast
9:55 PM 44.6 °F 40.7 °F 30.2 °F 57% 30.43 in 10.0 mi North 6.9 mph - N/A   Overcast
10:15 PM 44.6 °F 40.7 °F 32.0 °F 61% 30.43 in 10.0 mi North 6.9 mph - N/A   Overcast
10:35 PM 44.6 °F 39.7 °F 32.0 °F 61% 30.42 in 10.0 mi North 9.2 mph - N/A   Overcast
10:55 PM 44.6 °F 40.7 °F 32.0 °F 61% 30.42 in 10.0 mi North 6.9 mph - N/A   Overcast
11:15 PM 42.8 °F 37.5 °F 30.2 °F 61% 30.42 in 10.0 mi North 9.2 mph - N/A   Overcast
11:35 PM 42.8 °F 37.5 °F 30.2 °F 61% 30.41 in 10.0 mi North 9.2 mph - N/A   Overcast
11:55 PM 42.8 °F 38.0 °F 30.2 °F 61% 30.39 in 10.0 mi North 8.1 mph - N/A   Overcast